Regional Weather Roundup
Issued by NWS

Home | Current Version | Previous Version | Text Only | Print | Product List | Glossary Off
Versions: 1 2 3 4 5 6 7 8 9 10 11 12 13 14 15 16 17 18 19 20 21 22 23 24 25 26 27 28 29 30 31 32 33 34 35 36 37 38 39 40 41 42 43 44 45 46 47 48 49 50

000
ASUS43 KMPX 011601
RWRMN
WEATHER ROUNDUP FOR MINNESOTA
NATIONAL WEATHER SERVICE TWIN CITIES/CHANHASSEN MN
1100 AM CDT SAT AUG 01 2015


NOTE: "FAIR" INDICATES FEW OR NO CLOUDS BELOW 12,000 FEET WITH NO
SIGNIFICANT WEATHER AND/OR OBSTRUCTIONS TO VISIBILITY. N/A MEANS
CURRENT SKY AND/OR WEATHER CONDITIONS ARE NOT AVAILABLE.

MNZ060>063-068>070-011700-
   Twin Cities Metro

CITY           SKY/WX    TMP DP  RH WIND       PRES   REMARKS
TWIN CITIES    MOSUNNY   79  57  46 CALM      29.97S
ST PAUL        SUNNY     79  61  53 CALM      29.97S
CRYSTAL        SUNNY     80  54  40 W5        29.95S
BLAINE         SUNNY     79  55  44 CALM      29.97R
LAKEVILLE      SUNNY     79  63  57 W3        29.98S
EDEN PRAIRIE   SUNNY     79  61  53 VRB6      29.97S
SOUTH ST PAUL  SUNNY     78  59  51 W7        29.97R
LAKE ELMO      FAIR      77  59  53 S3        29.98S
$$
MNZ001>005-007-008-013>017-022>024-027-028-011700-
   Northwest Minnesota

CITY           SKY/WX    TMP DP  RH WIND       PRES   REMARKS
BEMIDJI        SUNNY     74  53  48 W8        29.93F
HALLOCK        SUNNY     75  55  50 SW6       29.87F
ROSEAU         SUNNY     75  57  53 W8        29.88F
WARROAD        SUNNY     73  59  60 SW10      29.88F
THIEF RVR FALL SUNNY     73  55  53 SW6       29.91F
CROOKSTON      SUNNY     75  55  50 SW5       29.91F
FOSSTON        SUNNY     73  55  53 CALM      29.93F
DETROIT LAKES  SUNNY     75  52  43 SW6       29.97S
MOORHEAD       SUNNY     73  59  60 SE3       29.93F
PARK RAPIDS    SUNNY     77  53  43 VRB7      29.96S
MAHNOMEN       FAIR      72  56  58 SW5       29.95S
$$
MNZ006-009>011-018-025>026-011700-
   North Central Minnesota

CITY           SKY/WX    TMP DP  RH WIND       PRES   REMARKS
BAUDETTE       SUNNY     75  51  43 W12       29.87F
FLAG ISLAND    SUNNY     73  48  40 W13G20    29.83F
INTL FALLS     SUNNY     74  53  48 W13       29.87F
WASKISH        SUNNY     73  61  64 SW9       29.90F
BIG FORK       SUNNY     75  48  38 W7        29.92S
LONGVILLE      SUNNY     75  54  46 NW5       29.94F
GRAND RAPIDS   SUNNY     73  54  49 W8        29.94S
CRANE LAKE     SUNNY     70  52  52 NW5       29.89F
ORR            SUNNY     73  48  40 NW8       29.87F
COOK           SUNNY     73  52  46 W8        29.90F
WALKER         FAIR      72  53  51 W5        29.94F
$$
MNZ012-019>021-037-011700-
   Northeast Minnesota

CITY           SKY/WX    TMP DP  RH WIND       PRES   REMARKS
DULUTH         MOSUNNY   76  51  41 W13       29.92S
ELY            MOSUNNY   70  52  52 NW10G16   29.89F
HIBBING        SUNNY     75  51  43 NW14G20   29.92F
EVELETH        SUNNY     72  46  40 NW13G20   29.92F
DULUTH HARBOR  SUNNY     77  55  47 W7        29.91S
TWO HARBORS    MOSUNNY   77  57  50 W7G16     29.89S
SILVER BAY     SUNNY     77  52  41 NW10G16   29.87F
GRAND MARAIS     N/A     77  52  41 NW10G22   29.83F
G MARAIS ARPRT MOSUNNY   70  48  46 W9G16     29.88F
$$
MNZ029>031-032-039>041-046>048-054>057-064-011700-
   West Central Minnesota

CITY           SKY/WX    TMP DP  RH WIND       PRES   REMARKS
FERGUS FALLS   SUNNY     75  57  53 CALM      29.94F
WHEATON        LGT RAIN  73  63  68 CALM      29.97S
MORRIS         SUNNY     79  61  53 S6        29.96S
ALEXANDRIA     SUNNY     77  53  43 SW5       29.99F
ELBOW LAKE     FAIR      75  57  52 S3        29.96F
WADENA         SUNNY     77  54  44 W5        29.96S
GLENWOOD       SUNNY     79  54  41 CALM      29.99S
APPLETON       MOSUNNY   77  63  61 S5        29.96F
BENSON         SUNNY     79  57  47 S3        29.97F
ORTONVILLE     PTSUNNY   75  63  64 E7        29.95F
MADISON        PTSUNNY   73  64  73 SE6       29.96F
WILLMAR        FAIR      79  61  53 S3        29.99F
$$
MNZ033>034-036-042>043-049>051-058-059-011700-
   Central Minnesota

CITY           SKY/WX    TMP DP  RH WIND       PRES   REMARKS
ST CLOUD       SUNNY     79  54  41 VRB6      29.97S
SAUK CENTRE    FAIR      76  55  46 SW6       29.98S
PAYNESVILLE    SUNNY     76  49  39 CALM      29.98F
AITKIN         SUNNY     75  57  53 W3        29.94S
PINE RIVER     SUNNY     75  54  46 W7        29.98S
BRAINERD       SUNNY     76  53  44 VRB3      29.96F
STAPLES        SUNNY     75  52  43 SW7       29.97S
LONG PRAIRIE   FAIR      77  54  44 W6        29.98S
LITTLE FALLS   SUNNY     77  48  36 W7        29.97S
LITCHFIELD     SUNNY     79  57  47 CALM      29.98F
BUFFALO        SUNNY     77  56  47 SW5       29.99S
MAPLE LAKE     SUNNY     77  59  53 W3        29.99S
$$
MNZ037-044-045-052-053-011700-
   East Central Minnesota

CITY           SKY/WX    TMP DP  RH WIND       PRES   REMARKS
PRINCETON      SUNNY     81  54  39 W5        29.97S
MORA           SUNNY     75  52  43 NW8       29.97S
CAMBRIDGE      SUNNY     81  57  44 W7        29.95S
RUSH CITY      SUNNY     77  56  48 W5        29.96S
MOOSE LAKE     SUNNY     73  52  46 NW5       29.93S
HINCKLEY       FAIR      77  55  47 W7        29.95S
CLOQUET        SUNNY     75  48  38 NW9G18    29.93S
MCGREGOR       SUNNY     73  52  46 NW7       29.95S
$$
MNZ071>073-080-081-089-090-097-098-011700-
   Southwest Minnesota

CITY           SKY/WX    TMP DP  RH WIND       PRES   REMARKS
MONTEVIDEO     MOSUNNY   81  64  57 S5        29.98F
GRANITE FALLS  MOSUNNY   74  66  75 E3        29.99F
CANBY          PTSUNNY   73  64  75 SE3       29.99S
MARSHALL       PTSUNNY   77  66  69 CALM      30.00S
REDWOOD FALLS  SUNNY     77  65  66 SE3       29.98F
OLIVIA         SUNNY     73  59  60 SE5       29.98F
PIPESTONE      PTSUNNY   77  70  78 SW9       30.01F
WINDOM         MOSUNNY   81  70  69 CALM      30.00F
WORTHINGTON    PTSUNNY   77  66  69 SW13      30.02F
JACKSON        MOSUNNY   81  68  65 SW10      30.02S
TRACY          MOSUNNY   81  72  74 CALM      29.99F
SLAYTON        PTSUNNY   79  69  71 SW10      30.02F
$$
MNZ065>067-074>077-082>085-091>093-011700-
   South Central Minnesota

CITY           SKY/WX    TMP DP  RH WIND       PRES   REMARKS
MANKATO        SUNNY     73  63  68 CALM      29.99F
NEW ULM        SUNNY     75  64  69 CALM      29.99F
ST JAMES       SUNNY     81  66  61 W3        30.00F
FAIRMONT       SUNNY     81  64  57 W7        30.00F
GLENCOE        SUNNY     78  63  61 CALM      29.98S
FARIBAULT      SUNNY     75  64  69 CALM      30.00R
OWATONNA       SUNNY     75  64  69 CALM      30.00S
WASECA         SUNNY     73  64  73 W3        30.02S
ALBERT LEA     SUNNY     75  64  69 NW7       30.01S
$$
MNZ078>079-086>088-094>096-011700-
   Southeast Minnesota

CITY           SKY/WX    TMP DP  RH WIND       PRES   REMARKS
ROCHESTER      SUNNY     75  66  73 W6        30.01R
RED WING       SUNNY     79  61  53 S5        29.96S
STANTON        MOSUNNY   77  62  59 CALM      29.97S
DODGE CENTER   SUNNY     73  64  73 CALM      30.01R
WINONA         SUNNY     77  61  57 CALM      29.97S
AUSTIN         SUNNY     77  64  65 W10       30.01S
PRESTON        MOSUNNY   74  63  69 NW5       30.01S
$$
ABBREVIATIONS USED IN REMARKS
   TC - TEMPERATURES IN CELSIUS
  WCI - WIND CHILL INDEX
   HX - HEAT INDEX
  VSB - VISIBILITY
$$



USA.gov is the U.S. government's official web portal to all federal, state and local government web resources and services.